Theta_e
328 330 332 333 332 330 327 325 323 324 325 323 320 319 329 341 328 324 344 350 333 336 343 344 347 345 343 348 352 352 355 360 356 350 348 347 346 353 357 356 359 361 362 363 364 364 362 360 360 362 363 363 363 362 362 362 364 366 368 368 368 367 366 364 363 362 361 360 360 359 359 358 357 356 355 355 354 354 356 357 356 357 358 359 359 360 360
326 329 332 333 332 331 329 329 327 327 326 323 322 324 331 338 334 339 355 352 341 340 340 340 342 340 340 344 345 347 351 354 354 350 347 347 350 355 356 359 361 361 362 365 364 365 365 359 359 363 364 364 364 363 363 363 363 364 366 367 367 366 366 365 363 362 361 360 360 359 359 358 357 356 355 356 355 355 356 357 356 356 356 357 359 359 360
326 330 335 332 331 330 326 328 331 330 329 326 323 323 327 333 333 338 348 348 344 340 339 342 342 338 338 340 340 345 347 347 349 350 348 349 352 352 355 363 369 367 365 366 365 367 368 362 359 362 364 365 364 364 364 363 363 363 364 366 367 366 366 365 365 363 361 360 359 359 360 359 358 357 356 356 356 356 356 357 357 357 357 357 358 359 360
327 333 337 332 328 329 324 324 330 331 328 326 324 324 326 332 333 332 335 337 340 340 338 339 340 339 339 339 341 343 342 341 344 348 352 355 356 358 363 373 379 377 373 372 370 367 364 362 361 361 363 365 365 364 365 364 363 363 363 364 366 365 365 365 366 364 362 360 360 359 359 360 360 358 357 357 356 356 357 358 359 359 358 358 358 359 360
325 329 330 327 326 326 324 326 330 331 332 330 326 324 326 332 337 335 334 338 344 345 340 336 338 340 340 343 345 344 343 343 342 344 350 355 358 365 373 377 379 377 377 379 376 370 364 363 363 362 362 363 365 364 364 365 364 364 363 364 364 365 365 365 365 366 364 362 361 360 359 358 359 359 358 357 357 357 357 358 360 361 361 360 359 359 360
324 321 324 334 335 327 326 333 334 331 333 331 328 330 331 330 332 338 346 351 349 345 342 340 341 341 341 343 344 343 346 349 350 351 351 353 358 366 369 371 374 375 378 381 374 366 364 364 365 364 363 362 364 364 364 364 364 364 363 363 364 365 364 364 366 366 365 364 362 361 360 359 359 359 359 358 357 357 357 357 359 362 362 362 361 361 361
323 323 332 341 337 331 330 333 334 332 331 330 333 341 346 345 342 341 344 347 346 342 341 343 342 342 342 345 348 349 352 356 359 360 358 359 365 369 370 371 373 375 380 382 374 365 361 358 358 361 362 362 362 362 362 362 363 363 363 362 363 364 364 364 365 366 366 365 363 363 362 361 360 359 359 359 358 357 358 358 358 360 362 362 362 362 361
323 334 345 344 334 332 335 334 332 333 335 333 337 341 345 346 346 347 342 341 342 342 342 342 341 342 346 353 357 357 357 359 359 357 358 362 366 369 370 373 375 374 374 373 368 363 360 357 354 354 357 359 360 360 360 361 361 361 362 362 361 363 365 364 365 367 367 366 365 364 364 362 361 360 360 360 359 358 358 358 358 358 360 362 362 362 362
323 330 338 336 327 329 334 334 332 332 334 335 338 341 344 345 344 348 348 344 341 340 341 342 343 347 354 359 360 357 355 356 356 354 355 357 361 363 363 363 366 365 362 361 360 357 355 356 358 356 355 356 357 359 359 359 360 361 360 362 361 362 365 365 365 367 368 367 366 365 365 364 363 362 361 361 361 360 359 358 359 359 359 360 361 361 362
322 324 328 329 327 331 332 330 331 332 332 332 337 343 345 343 341 346 351 350 348 346 346 345 347 354 360 362 360 357 354 353 353 354 353 352 356 358 356 356 359 357 357 360 362 363 362 364 366 365 363 362 361 362 361 358 358 359 361 362 361 361 364 365 365 367 368 368 367 366 366 366 365 364 363 363 362 362 360 360 359 359 359 359 360 361 362
320 323 328 329 329 333 334 331 330 332 334 334 336 346 346 343 341 345 349 349 350 351 350 350 352 357 360 361 359 354 352 352 353 355 355 353 353 351 351 355 357 356 358 361 364 367 367 365 365 367 367 366 365 366 367 363 359 357 358 361 361 361 363 365 366 367 369 369 368 368 368 367 367 367 365 364 364 363 363 362 360 360 360 360 360 361 361
320 323 327 330 333 332 331 330 331 332 334 334 342 350 347 343 341 344 346 346 347 348 349 350 352 355 358 359 356 351 350 351 351 353 354 354 353 350 351 355 356 357 362 364 364 366 365 364 365 367 369 369 366 365 367 367 364 359 357 358 359 360 361 364 366 368 369 370 370 369 369 369 368 369 367 366 366 365 365 364 363 362 362 361 362 362 362
317 321 323 328 334 332 327 328 332 333 336 342 350 350 347 341 341 344 343 344 344 345 347 349 351 352 352 351 350 348 349 349 349 350 350 351 351 351 353 356 355 356 361 361 361 364 365 363 363 366 370 373 370 366 364 366 366 362 360 359 357 359 361 363 366 368 369 371 371 370 369 369 369 370 369 369 368 367 368 367 366 365 364 363 364 363 363
316 320 319 322 331 330 325 327 330 332 342 349 349 347 342 337 339 341 340 342 343 343 344 347 348 347 345 345 347 347 347 348 349 349 349 350 352 352 353 355 353 354 359 360 360 363 364 362 363 365 367 370 371 369 369 371 370 366 364 361 357 358 361 363 365 368 369 371 372 371 370 370 371 371 371 370 370 369 369 368 367 367 366 364 364 364 364
318 319 317 324 334 329 322 326 331 335 343 345 342 340 337 333 336 338 338 340 341 342 344 345 345 345 344 344 345 346 346 347 347 348 350 352 353 352 352 353 351 351 355 357 359 363 362 362 363 364 365 369 372 371 371 372 372 368 367 365 359 357 360 363 365 368 369 371 372 371 371 371 372 372 372 372 371 370 369 369 369 368 367 366 365 364 364
321 321 321 330 334 326 319 327 332 333 337 339 336 336 335 332 332 335 337 338 338 340 344 345 344 344 343 343 344 345 347 346 346 348 350 351 351 350 349 350 350 350 351 354 359 361 360 360 361 360 362 367 369 368 367 368 370 369 368 368 366 362 360 363 366 367 368 370 371 372 373 373 372 373 373 373 372 371 370 370 369 368 368 367 366 365 364
323 324 325 329 329 322 320 325 327 328 332 332 332 333 333 330 330 332 335 336 335 337 341 344 345 344 343 344 344 345 346 346 346 348 350 350 350 349 349 349 349 350 350 352 358 359 357 357 359 359 360 362 362 363 364 365 367 369 368 368 370 367 363 363 366 367 369 370 371 372 373 373 373 373 374 374 373 371 371 370 370 370 369 368 368 367 366
321 322 324 324 323 321 321 322 323 327 331 330 329 331 332 330 328 329 331 333 334 335 337 342 345 345 345 346 346 347 349 349 349 350 351 351 350 348 349 350 349 350 351 353 357 358 356 355 356 358 358 359 360 361 362 363 366 368 368 370 371 370 366 365 366 369 370 370 372 373 373 374 374 374 374 374 373 372 372 371 370 370 370 370 370 369 368
319 321 322 321 321 322 323 324 325 327 329 330 330 330 331 330 327 326 328 330 332 334 335 338 341 343 346 348 349 351 353 353 352 353 353 352 350 348 349 351 350 349 352 355 356 356 354 354 355 356 356 357 358 358 360 363 365 366 368 370 371 372 370 368 368 370 372 371 372 374 374 374 375 374 374 375 374 373 373 372 372 371 371 371 371 371 370
319 319 320 319 320 322 322 323 325 325 326 328 329 328 328 328 326 325 326 327 329 331 333 335 337 338 344 349 350 350 353 355 354 354 354 353 351 350 351 352 352 351 352 355 356 354 353 353 353 354 354 354 355 357 359 361 363 366 367 367 368 371 371 370 370 370 371 373 374 374 375 375 375 376 376 375 374 374 373 373 373 372 371 371 371 371 370
317 318 319 320 321 321 320 319 321 322 322 324 326 326 326 326 327 326 326 325 326 327 329 332 333 334 338 346 350 348 350 354 355 354 353 351 350 351 351 352 353 353 353 354 354 353 352 351 351 352 353 353 353 355 356 358 361 364 366 367 367 368 368 369 370 369 369 372 373 374 375 374 373 373 374 375 374 373 372 373 373 372 371 371 370 369 368
317 318 318 319 318 318 319 319 319 319 320 321 323 324 325 326 328 328 326 325 325 326 326 328 331 333 333 339 347 349 348 352 354 353 351 349 348 350 350 351 352 353 353 354 353 352 351 350 350 350 351 352 353 353 354 356 359 362 365 366 365 364 364 365 367 368 368 369 369 372 373 371 368 367 367 370 372 370 368 368 369 369 370 368 367 366 363
317 316 317 317 317 317 319 320 320 319 320 320 320 322 324 325 327 328 327 325 325 326 325 325 328 332 331 332 341 349 349 348 350 349 348 348 348 348 349 350 351 351 353 354 354 353 353 352 351 350 350 351 352 352 352 355 358 360 362 362 360 360 361 361 363 366 367 367 368 369 369 367 364 361 359 358 361 361 361 361 363 363 363 362 361 361 359
316 316 316 317 317 317 317 318 319 320 320 320 320 320 322 323 324 324 324 325 325 325 326 324 324 329 331 330 336 347 350 347 346 347 347 347 348 348 349 350 351 352 353 353 353 353 353 352 352 352 351 351 352 352 352 353 356 358 359 359 359 359 359 359 360 362 364 365 366 366 366 363 359 354 349 345 344 346 347 349 351 351 351 351 350 348 346
314 315 315 315 316 316 316 317 318 319 320 321 321 321 321 323 323 323 323 326 325 324 325 324 322 325 329 330 333 342 347 345 344 346 347 346 347 347 348 349 350 351 351 352 352 352 351 351 350 350 349 350 351 351 350 351 354 356 356 357 357 357 357 357 358 358 358 359 359 361 362 361 357 351 345 340 337 337 337 337 336 336 336 336 335 333 332
312 312 313 314 314 315 315 316 317 318 319 320 320 322 322 323 324 324 323 324 324 323 324 325 323 323 327 330 333 340 344 344 343 345 346 346 346 347 348 348 349 349 349 349 349 350 350 349 349 348 348 348 349 350 351 350 351 353 354 354 356 356 355 355 355 355 354 353 353 354 356 356 356 352 346 342 339 337 336 335 334 332 331 329 328 328 328
311 311 312 313 314 314 315 316 317 318 319 319 319 319 319 319 320 321 320 321 322 322 322 322 321 322 326 331 336 341 344 343 343 344 344 345 346 346 347 348 347 347 347 346 347 347 348 348 347 346 347 347 348 350 352 350 350 352 353 353 353 354 354 354 353 352 350 348 348 350 349 349 350 350 349 346 344 342 342 340 337 335 335 333 331 330 329
310 311 312 313 313 314 314 316 317 318 319 319 319 318 317 317 318 319 319 319 320 321 322 321 320 324 328 331 336 342 344 343 344 344 343 344 345 345 346 346 345 345 345 344 344 345 344 344 344 345 346 346 347 349 350 349 350 351 350 349 349 350 350 351 350 348 347 346 346 346 345 345 345 345 345 344 344 346 346 344 340 338 338 338 337 337 334
311 311 312 313 313 313 314 315 316 316 316 316 317 317 317 318 318 319 319 319 319 321 323 322 321 324 326 329 335 342 344 344 344 343 342 342 343 344 345 344 343 343 342 343 343 343 342 342 342 343 343 344 345 348 348 346 346 347 346 346 346 346 346 347 346 345 345 345 343 343 343 342 342 343 343 341 340 343 345 343 341 341 341 341 340 338 336
315 313 312 313 313 313 314 315 315 315 315 315 316 317 318 318 319 319 320 320 320 321 323 324 324 324 325 329 336 341 342 341 340 340 340 341 342 342 343 342 341 340 340 339 340 341 341 341 341 341 342 342 343 346 346 345 344 344 343 343 343 345 346 346 345 344 344 343 342 342 341 341 340 341 342 342 341 341 343 342 342 342 341 341 340 337 335
319 317 314 314 314 314 314 315 315 316 316 316 316 317 318 318 319 319 320 321 321 322 324 327 327 326 327 332 337 339 338 337 336 336 338 340 340 340 341 340 339 338 337 336 336 337 339 340 340 339 340 341 342 344 345 345 344 344 343 342 342 343 344 345 344 343 343 343 342 341 341 341 341 341 341 342 342 341 341 341 340 340 340 340 339 337 335
321 320 317 315 315 315 315 315 316 316 316 316 317 317 318 319 319 319 320 321 320 322 325 327 326 326 330 333 335 336 336 336 335 335 336 337 337 338 338 338 336 335 334 332 332 332 335 338 339 337 337 339 341 343 343 344 344 343 342 342 341 341 342 342 342 342 342 341 340 340 340 341 341 341 341 340 340 340 340 340 339 339 340 340 338 337 335
319 321 319 318 317 316 316 317 317 316 316 316 317 317 318 319 319 319 319 320 319 322 326 326 324 325 330 333 334 335 335 335 335 335 334 333 333 333 334 333 332 331 330 329 329 329 330 333 336 335 334 335 338 341 342 343 343 342 341 340 340 340 340 340 340 340 340 340 339 339 339 338 338 338 338 338 337 337 337 337 338 338 338 338 338 336 334
315 317 318 318 318 319 319 318 318 317 317 317 318 318 319 320 320 320 319 319 320 322 324 324 323 326 330 331 332 333 333 334 334 334 333 332 331 329 328 328 328 327 327 327 327 327 328 330 332 331 330 331 334 339 341 341 340 341 340 339 338 337 337 337 337 338 338 338 337 336 335 335 334 334 334 334 334 333 333 333 334 333 333 334 333 332 332
312 313 314 315 316 317 319 320 320 319 318 318 319 319 319 320 320 320 321 321 320 320 322 324 327 330 331 331 331 331 332 331 331 330 329 328 327 326 325 324 324 324 324 324 324 325 326 327 329 328 328 328 331 336 340 340 339 338 338 336 336 336 335 335 335 334 334 335 335 334 332 331 331 330 330 330 330 331 331 330 330 330 330 330 330 329 329
310 311 311 312 312 313 315 317 318 320 320 321 321 321 321 320 320 320 321 321 320 321 325 328 330 331 331 330 330 329 328 327 326 325 324 324 323 322 322 322 322 322 322 322 322 323 324 325 326 326 326 326 328 332 337 338 338 337 336 334 334 334 333 332 332 331 331 331 330 330 329 328 327 327 327 327 327 327 328 328 328 328 327 327 326 326 325
310 310 310 310 311 311 312 314 316 317 318 320 321 323 323 323 321 321 321 321 322 325 328 329 330 329 329 328 327 325 325 324 323 322 321 321 320 319 319 320 320 321 321 321 321 321 322 323 324 324 324 324 325 327 330 332 333 333 332 332 332 332 331 331 330 329 328 327 326 326 325 325 324 324 324 323 323 323 323 324 324 324 324 323 322 321 321
309 309 309 309 309 310 310 311 313 314 315 316 317 319 322 323 322 322 323 325 327 327 326 326 327 327 325 324 323 322 322 322 321 320 319 318 317 317 317 318 318 319 319 319 320 320 321 321 322 323 323 323 323 323 325 327 328 328 328 329 329 329 329 329 328 327 326 325 324 323 322 322 321 321 321 320 320 320 319 320 320 320 320 319 319 317 316
309 309 309 309 309 309 309 309 310 311 312 313 314 315 317 318 317 317 319 323 325 326 326 325 325 324 322 321 320 320 319 319 319 318 317 316 316 316 316 315 316 316 316 317 318 319 319 319 320 321 322 322 322 322 322 323 324 324 325 325 325 325 325 326 326 326 325 324 322 321 320 320 319 319 318 318 317 317 317 316 316 316 316 316 315 314 313
309 309 309 308 308 308 308 309 309 309 309 311 312 313 313 313 313 313 315 316 318 320 321 321 320 318 317 316 316 316 316 316 316 316 316 315 315 314 314 313 313 313 314 315 317 317 317 317 318 319 320 320 320 320 320 320 320 321 321 322 322 322 321 321 322 322 322 322 321 319 318 317 317 316 316 316 315 315 314 314 313 313 312 312 312 311 311
310 309 309 308 308 308 308 308 308 308 308 308 309 310 311 311 311 312 312 313 313 314 315 316 315 314 313 313 312 312 312 312 312 313 314 314 313 313 313 313 312 312 312 313 314 315 316 315 316 316 317 318 318 318 318 318 318 318 318 319 319 319 319 319 319 319 319 319 318 316 315 314 313 313 313 313 313 313 312 311 311 310 310 310 309 309 309
310 309 309 308 308 308 308 307 307 307 308 308 308 308 309 309 309 310 310 310 310 311 312 313 313 314 313 313 312 312 311 311 310 310 311 311 312 312 312 312 312 312 311 311 311 313 315 315 315 314 315 315 316 316 316 316 316 316 316 316 316 317 317 317 317 316 316 316 315 314 312 311 310 309 309 309 309 309 309 308 308 308 308 308 307 307 307
311 310 309 309 308 308 308 307 307 307 307 307 307 307 307 307 308 308 309 309 309 309 310 310 310 311 311 311 311 312 312 312 311 311 310 310 310 311 311 311 310 310 310 310 310 311 313 314 314 314 314 313 313 313 313 313 313 314 314 314 314 314 315 315 315 315 315 314 313 312 311 310 309 308 307 307 306 306 306 306 306 306 306 306 306 306 305
312 311 311 310 309 308 307 307 307 308 308 307 307 306 306 306 307 307 307 308 308 308 308 309 309 309 309 309 309 310 310 310 310 311 311 310 310 310 309 310 309 309 309 309 309 310 310 311 312 312 312 312 312 311 311 311 311 311 311 311 311 311 312 312 313 313 313 313 313 312 311 311 310 309 308 307 306 306 305 304 304 304 303 303 303 303 303
311 311 311 311 310 309 309 308 308 308 308 307 307 306 306 306 306 306 306 307 307 307 307 307 307 308 308 308 307 307 307 307 308 308 309 311 311 310 309 309 309 308 308 308 308 309 309 309 309 310 310 310 310 310 310 310 310 310 310 309 309 309 310 310 310 310 310 310 310 310 310 310 310 309 309 309 308 307 307 305 304 303 302 302 301 301 300
310 310 310 310 310 310 310 309 309 309 308 308 308 308 307 307 306 305 305 305 306 306 306 306 306 306 306 306 306 306 305 305 305 306 307 308 309 309 308 308 308 308 307 306 307 308 308 308 308 309 309 309 308 308 308 308 308 309 309 309 309 308 308 308 308 308 308 308 308 308 308 308 307 307 307 307 307 307 307 307 306 305 304 303 302 301 300
309 308 308 309 309 309 309 309 309 309 309 309 309 309 308 308 307 306 305 305 305 305 305 305 305 305 305 305 305 305 305 305 305 305 305 306 306 307 307 307 307 306 306 306 306 307 307 307 307 307 307 307 307 307 307 307 307 307 307 307 308 308 308 308 308 308 307 307 307 307 307 306 306 306 306 305 305 305 305 305 305 305 305 304 304 303 302
308 308 308 307 307 307 307 307 308 308 308 308 308 308 307 307 307 307 306 306 305 305 304 304 304 304 304 303 304 304 304 304 305 304 304 304 305 305 306 305 305 305 305 305 305 305 306 306 306 306 306 306 306 306 306 305 305 305 305 305 306 306 307 307 307 307 307 307 307 306 306 306 306 306 305 305 304 304 304 304 303 303 303 303 303 303 302
307 307 307 307 307 307 307 307 307 308 307 307 307 306 305 305 306 306 306 305 305 304 304 304 304 303 303 303 303 303 302 303 303 303 303 303 303 303 304 304 304 303 303 303 304 304 304 305 305 305 305 305 305 305 304 304 304 304 304 304 304 305 305 305 305 305 306 306 306 306 306 306 306 306 305 305 304 303 303 303 302 302 301 301 300 300 300
307 307 306 306 306 306 306 306 306 306 306 306 306 306 305 305 305 305 305 305 304 303 303 303 303 303 302 302 302 302 302 302 302 302 302 302 302 302 302 303 303 302 302 302 302 303 303 303 303 303 303 303 304 304 303 303 303 303 302 302 303 303 303 304 304 304 304 304 304 304 304 304 304 304 304 304 304 304 303 303 302 302 301 300 298 298 298
306 306 306 305 304 304 305 305 305 305 304 305 305 305 304 304 304 303 304 304 304 304 303 302 302 302 302 302 301 301 302 302 302 302 301 302 302 302 302 302 302 301 301 301 301 302 302 302 302 302 302 302 302 302 302 302 302 302 302 302 302 302 302 302 303 303 303 303 302 302 302 303 303 303 302 303 303 303 303 302 302 301 301 300 299 298 298
305 305 305 305 304 303 303 303 303 303 303 303 303 304 303 303 302 302 302 303 303 303 303 302 302 302 302 302 302 302 302 302 302 302 302 302 302 302 301 301 301 301 301 301 301 301 301 302 302 301 301 301 302 302 302 302 301 302 302 301 301 301 301 302 302 302 302 302 301 301 301 301 301 301 301 301 302 302 302 302 302 301 300 300 300 299 298
Wind_Speed
13 13 15 13 10 4 8 13 15 15 19 22 16 9 9 8 7 6 7 10 9 6 6 5 5 6 9 8 8 8 7 8 11 15 17 17 14 11 12 16 18 17 16 15 15 15 16 20 23 25 28 31 32 31 33 35 35 35 36 37 37 37 38 39 41 42 42 42 43 42 42 42 42 41 41 41 40 39 39 40 41 41 40 39 40 41 41
14 11 11 13 12 6 2 3 11 11 13 21 20 11 9 9 7 7 10 12 9 6 4 3 4 9 10 7 7 9 10 10 11 13 16 15 13 11 11 13 14 14 14 14 13 13 13 16 19 22 24 28 30 30 32 34 35 35 35 37 38 38 38 39 40 41 42 41 42 42 42 42 43 42 41 41 41 40 40 41 41 41 40 40 39 40 41
8 7 9 14 13 6 4 2 4 4 3 14 21 16 10 8 7 8 10 9 3 1 7 9 9 11 12 11 11 11 10 10 10 11 13 13 13 13 12 11 10 11 12 12 12 13 12 15 19 21 23 27 30 30 31 33 35 35 35 36 38 39 38 39 39 40 42 41 41 42 42 42 43 43 42 41 41 41 41 40 40 41 41 41 40 40 41
5 5 6 14 12 8 7 6 3 3 5 5 15 16 10 7 9 10 8 7 2 2 10 12 10 10 12 13 13 12 11 11 12 11 10 10 11 11 11 11 11 11 11 11 12 13 13 17 21 23 23 25 28 30 30 31 33 35 35 34 37 39 38 38 39 40 40 41 40 41 42 42 42 43 43 41 41 41 40 40 40 40 41 42 41 40 40
6 7 9 11 7 6 7 4 1 1 4 5 8 15 13 7 8 8 6 6 7 6 11 13 12 12 12 11 11 11 11 11 12 12 10 9 9 9 9 9 9 9 10 10 11 12 14 17 20 23 24 25 27 29 30 30 31 33 34 32 33 37 38 38 39 40 40 40 40 40 41 42 41 41 41 41 41 41 41 40 39 40 41 42 41 40 39
7 12 12 5 3 2 3 0 2 2 6 8 4 5 7 7 4 5 7 6 4 5 10 13 13 11 9 9 10 10 10 10 11 12 10 9 10 10 10 9 8 7 7 6 6 8 11 14 16 19 21 21 24 29 30 31 31 32 33 32 31 33 37 38 39 40 41 41 41 40 40 41 40 39 40 41 41 40 39 39 39 40 41 41 41 41 41
6 10 7 3 1 5 2 2 4 7 8 4 9 15 13 10 10 3 9 14 10 8 10 12 13 12 11 12 14 15 14 13 13 14 12 11 12 11 11 11 10 9 9 8 8 8 8 6 6 12 16 18 19 23 26 29 31 31 32 32 30 31 35 37 38 39 41 41 41 40 39 39 39 39 39 39 39 38 38 39 41 40 40 40 41 42 42
4 5 2 2 3 6 3 6 11 14 12 4 7 16 19 19 19 12 4 13 13 11 10 11 12 15 16 16 16 17 16 15 14 14 13 13 13 12 11 10 9 9 10 10 8 9 10 9 6 1 8 16 18 20 22 24 26 28 30 31 30 30 33 36 37 38 40 40 39 39 39 38 39 38 38 37 37 37 37 37 38 38 38 39 40 41 42
4 4 2 2 5 4 4 8 11 13 13 5 6 10 12 18 20 18 9 5 12 13 12 12 13 16 17 13 11 14 15 15 15 14 12 13 13 12 11 11 10 11 12 12 12 11 12 11 10 10 6 6 11 14 20 23 22 23 25 28 30 29 30 35 36 37 38 39 38 38 38 38 38 38 37 37 36 36 35 34 34 36 37 38 39 39 39
4 4 3 4 4 1 5 12 16 17 16 8 7 12 11 17 19 18 15 10 10 12 11 11 13 15 15 10 7 10 13 13 14 14 13 12 11 10 10 10 10 13 13 12 11 11 12 12 12 12 12 8 5 4 10 19 23 22 21 24 27 27 28 32 35 35 36 38 38 37 37 37 37 36 36 36 35 35 35 35 34 34 35 35 36 37 37
4 4 3 3 2 1 8 16 18 19 18 10 6 11 10 14 17 16 15 15 15 13 12 11 11 12 11 7 5 8 11 12 12 12 12 12 11 11 12 11 10 13 14 13 13 14 14 14 13 13 13 11 8 8 6 8 16 22 24 24 24 25 25 28 32 34 35 36 37 37 37 37 36 35 35 34 34 34 35 35 34 33 32 32 33 35 36
5 4 2 3 1 3 11 17 17 18 18 8 6 8 5 11 15 14 13 15 16 15 14 13 12 10 8 5 6 8 10 12 12 11 11 11 11 11 14 15 16 17 18 16 15 15 15 15 15 14 15 13 10 9 9 7 7 14 23 27 26 24 24 25 29 34 34 35 36 36 36 35 34 34 33 32 32 33 33 33 32 32 31 31 32 33 34
5 4 3 2 0 4 12 16 17 19 14 5 8 6 2 8 12 13 13 14 14 14 14 12 10 9 8 7 8 10 12 13 13 13 12 12 13 13 15 18 19 18 18 17 15 14 15 16 16 15 16 15 13 11 8 7 7 8 14 24 28 26 25 25 27 31 33 34 35 35 34 34 32 32 32 31 31 31 30 30 30 30 31 31 30 30 30
4 2 4 3 1 7 15 15 15 16 9 4 5 1 3 6 11 13 14 14 12 12 12 11 9 9 10 11 11 12 13 13 12 12 12 12 13 15 15 18 19 17 14 13 12 12 14 14 15 15 17 17 15 10 7 8 8 9 7 18 28 28 26 26 27 29 31 32 33 33 33 32 31 30 29 29 29 29 29 28 28 29 30 30 29 28 27
2 1 3 3 2 9 18 15 12 13 8 3 1 2 4 9 12 11 12 13 13 11 10 10 9 9 11 12 11 11 11 11 11 11 10 9 10 12 12 14 16 16 12 10 9 8 11 10 12 14 16 15 11 5 8 11 9 8 5 10 25 29 28 27 27 29 30 30 31 31 30 30 30 28 28 28 28 28 28 27 27 27 28 28 28 27 26
2 1 2 2 1 6 12 10 8 7 5 3 2 4 6 9 9 8 9 10 13 13 10 9 9 9 10 10 9 9 9 10 9 9 8 8 8 9 11 13 13 13 13 14 9 7 11 10 11 14 15 13 11 10 11 12 10 9 9 2 14 24 27 26 27 28 28 29 29 29 28 29 28 26 26 27 27 27 28 27 26 25 25 26 26 25 25
2 1 2 2 2 5 8 7 5 5 6 5 5 6 6 6 7 7 7 8 12 13 12 10 9 9 9 9 9 8 8 8 9 8 8 9 9 10 11 12 13 12 14 16 7 9 12 12 11 12 14 13 13 13 12 12 11 9 11 8 4 16 22 23 24 26 27 27 28 28 27 27 27 26 25 25 25 26 26 26 25 23 23 23 24 23 23
3 3 4 2 4 7 8 7 7 6 5 5 5 6 5 5 6 7 8 9 10 11 12 10 8 7 8 9 8 8 8 8 8 8 7 8 9 10 10 10 11 12 15 14 6 12 12 11 11 12 12 12 13 13 12 12 11 9 10 10 4 11 16 18 20 23 25 25 25 26 27 27 27 27 26 25 24 24 24 25 24 23 22 22 22 21 21
4 2 2 4 8 8 6 5 6 4 3 5 5 5 4 4 6 8 9 10 9 10 11 11 10 8 8 8 7 6 6 6 7 7 7 7 8 8 10 11 9 10 13 10 8 11 10 10 10 11 11 12 12 11 11 11 10 8 8 9 7 8 12 15 17 19 22 23 23 24 25 26 26 26 26 25 24 23 23 23 22 22 21 20 19 19 19
3 4 6 7 6 6 5 4 4 4 4 5 5 5 5 6 8 9 9 9 9 9 9 10 10 10 8 8 7 7 5 5 6 6 6 7 8 8 10 13 11 8 9 8 8 9 8 9 9 9 9 10 12 11 10 10 9 7 5 6 7 8 9 10 13 16 18 21 23 22 23 23 23 23 24 24 24 23 23 23 22 21 21 20 18 17 16
5 4 5 6 5 5 6 7 7 7 6 5 6 6 6 7 7 8 9 9 8 9 10 10 10 10 10 8 7 7 6 5 5 5 5 7 9 9 9 13 12 10 9 7 7 8 8 8 9 9 8 7 10 12 10 10 10 7 3 2 5 7 7 6 8 12 13 15 18 21 23 22 18 17 19 23 23 21 20 21 22 21 20 19 18 15 11
5 5 6 8 6 5 6 7 9 9 8 7 7 7 6 5 6 6 6 8 7 8 9 10 9 9 10 10 7 6 6 5 5 6 5 6 9 10 9 9 10 12 12 9 7 6 5 5 7 9 9 8 9 11 12 11 11 9 5 6 9 11 11 9 5 8 9 9 11 16 21 20 14 12 11 13 15 14 12 12 14 15 14 13 13 13 12
7 9 10 9 6 5 4 5 8 8 8 7 7 5 5 5 5 4 4 5 7 7 7 8 8 8 9 11 9 6 6 6 6 6 5 5 6 8 9 9 8 9 11 11 10 8 6 5 5 7 11 12 10 11 12 12 12 10 11 13 15 16 15 15 12 10 9 7 7 11 16 18 19 20 19 17 15 15 14 12 12 13 13 13 12 10 10
10 10 10 10 9 9 7 6 7 8 6 6 7 6 4 4 4 4 3 3 4 6 7 8 9 9 8 9 9 7 5 6 7 4 2 3 5 5 6 8 9 8 8 9 10 11 11 12 11 12 15 17 15 12 13 13 12 13 14 15 16 16 16 17 17 17 18 17 16 18 20 21 23 25 26 26 25 23 21 19 18 17 17 16 15 13 12
13 11 11 11 12 12 10 8 8 7 6 6 7 6 5 4 3 3 4 3 2 4 6 7 9 11 9 8 9 7 4 5 8 7 3 1 2 2 3 6 8 8 8 8 8 10 13 15 16 16 18 20 17 13 10 11 13 15 16 16 16 15 16 17 18 19 21 21 21 22 22 22 23 24 24 25 25 26 27 27 26 24 23 21 20 20 19
15 14 14 15 15 13 10 9 9 8 7 7 7 5 5 6 4 3 3 2 0 2 5 6 9 12 12 9 8 7 5 6 9 9 6 2 1 1 4 6 6 7 9 10 10 11 12 14 16 17 19 21 19 13 8 10 13 15 16 16 16 15 16 17 18 19 20 20 20 21 22 21 21 22 22 24 25 25 25 25 25 26 26 25 23 23 22
15 14 13 15 16 13 9 9 9 8 7 7 7 6 6 7 5 5 4 3 2 2 3 6 10 13 13 12 9 7 7 8 8 8 7 3 2 3 4 6 8 9 11 13 13 14 14 15 17 18 19 21 20 14 8 10 12 14 15 17 17 16 16 17 19 19 21 21 21 20 21 21 22 23 23 22 22 22 22 21 21 22 23 23 22 20 20
15 13 12 14 16 13 9 9 10 9 7 7 7 7 7 7 6 5 4 5 5 4 3 6 11 11 9 10 9 5 4 6 5 6 7 4 3 4 5 8 9 10 11 12 14 17 17 17 18 19 19 21 21 16 11 11 11 13 16 18 17 15 16 18 19 19 21 22 22 21 21 21 21 22 23 22 21 21 22 22 22 22 21 20 17 15 16
13 13 13 15 16 13 10 10 12 12 10 9 8 8 8 7 7 6 4 5 6 5 2 4 9 10 9 9 7 4 3 3 4 5 6 5 2 3 5 9 11 12 13 14 15 17 17 18 19 19 19 20 20 18 15 16 18 20 21 20 17 14 14 17 19 21 22 22 22 21 21 21 22 22 22 21 21 21 21 21 22 21 19 16 13 13 15
11 12 13 14 14 12 11 13 13 13 12 10 9 9 9 8 7 7 6 5 6 5 2 2 6 10 10 7 4 2 2 4 6 8 8 5 1 3 6 9 11 12 13 15 16 16 16 16 18 19 18 17 19 19 16 15 20 22 22 21 19 15 12 14 17 19 20 20 19 20 20 20 20 20 19 19 20 20 19 19 19 19 16 13 11 13 15
10 10 13 12 11 12 13 13 12 11 11 10 10 10 10 9 8 7 6 6 7 7 4 2 4 8 8 3 4 5 3 5 9 11 10 6 2 5 9 12 11 10 11 15 17 17 17 16 16 17 16 15 17 20 18 15 18 21 21 21 22 20 17 17 19 22 22 22 21 22 22 20 19 18 17 17 17 16 15 15 14 14 14 13 13 13 13
7 6 10 9 8 10 11 11 11 12 12 11 11 11 10 8 9 8 7 6 7 7 5 3 4 8 6 1 6 6 5 7 11 13 13 11 9 8 10 14 16 16 16 18 20 21 20 16 13 14 15 14 15 18 19 19 20 22 22 22 24 25 24 24 25 26 27 27 27 27 26 25 24 23 22 21 20 19 16 14 13 12 13 14 14 13 12
12 3 4 7 8 10 11 10 10 11 12 11 10 9 8 7 8 8 7 6 7 8 6 4 6 10 7 2 6 5 5 7 10 12 14 16 17 16 15 15 17 20 21 21 22 23 23 19 15 14 16 16 14 14 17 18 18 19 21 22 24 26 27 27 27 28 29 28 27 28 28 27 27 26 25 24 25 26 24 22 22 22 21 19 19 18 17
17 13 10 7 4 4 7 9 10 10 11 10 8 7 7 6 6 7 8 8 8 8 7 6 8 10 5 5 8 4 3 5 7 8 10 14 17 19 20 19 19 21 25 26 25 24 23 22 19 18 19 19 16 13 13 16 17 18 20 22 24 26 27 27 27 27 27 26 26 27 28 28 27 26 26 26 26 27 27 25 24 25 25 24 23 22 21
20 19 17 16 13 10 7 5 4 5 7 8 8 8 7 7 7 8 8 9 10 10 9 7 6 5 6 11 9 5 4 6 8 10 13 15 15 18 21 23 23 24 26 27 25 23 22 22 21 20 22 24 22 16 13 15 19 21 22 23 25 25 26 26 27 27 25 25 26 27 27 27 27 26 26 26 26 26 26 25 24 23 23 22 21 21 21
23 20 17 16 17 18 15 11 7 5 3 4 6 6 6 7 8 9 10 12 14 12 9 8 7 7 9 11 9 7 8 12 14 15 16 17 18 20 23 24 23 22 21 22 24 24 23 22 21 22 25 29 29 24 18 16 17 20 22 23 25 25 26 26 27 28 27 27 27 26 26 26 27 27 26 26 26 25 24 24 23 22 22 22 21 21 21
23 21 17 15 17 18 17 14 12 10 9 6 5 4 4 7 7 9 13 16 14 9 12 13 10 8 7 9 11 12 14 16 18 18 18 19 22 24 24 22 21 19 16 16 19 23 23 22 22 24 27 30 31 30 27 24 22 22 23 24 25 26 26 26 26 27 28 27 26 26 25 25 25 25 25 25 25 24 24 23 22 21 21 21 21 21 22
23 23 21 21 21 20 20 21 22 20 16 12 11 9 6 3 5 4 4 8 10 14 16 14 11 10 11 13 16 18 18 19 20 21 20 21 24 25 22 19 18 17 14 13 16 20 22 23 25 27 28 29 30 31 31 31 30 30 28 27 27 27 26 26 26 27 27 27 26 26 26 25 24 23 23 23 23 23 23 22 22 21 21 21 21 21 21
18 20 23 25 25 24 24 26 29 28 23 18 15 14 14 18 19 17 12 8 11 16 18 17 14 12 12 15 17 18 19 20 20 21 22 22 24 25 23 21 21 19 16 16 19 20 21 24 28 29 29 28 29 30 31 31 33 32 31 30 30 29 27 27 26 25 25 26 25 25 24 23 22 21 21 20 20 21 21 22 21 21 20 19 19 19 20
13 15 19 21 21 22 23 23 25 28 30 28 21 17 20 26 29 24 20 19 20 19 18 19 16 12 12 15 17 18 20 21 20 20 21 22 23 22 21 21 23 23 21 21 23 23 24 27 30 30 30 29 29 29 30 31 32 32 31 30 29 29 28 28 27 26 25 25 24 23 23 22 21 21 20 20 20 20 20 20 20 19 18 18 18 18 19
13 16 19 19 19 21 22 22 23 27 32 32 28 25 27 32 33 28 23 25 31 31 24 18 18 18 18 20 23 25 26 26 25 24 22 20 19 16 14 15 21 23 23 24 26 26 27 29 30 30 30 30 28 28 29 30 31 31 30 29 28 27 27 27 27 27 25 24 23 23 23 23 23 23 22 22 21 21 20 20 20 19 19 19 19 18 18
14 17 18 17 17 19 21 22 23 25 27 29 30 30 32 35 35 31 29 32 36 34 28 23 23 25 23 24 27 28 26 26 27 27 26 23 20 16 13 15 20 23 23 26 29 29 28 29 30 29 30 29 28 27 29 30 29 30 29 29 28 27 26 26 26 26 25 25 24 24 24 25 25 25 24 24 23 23 22 22 22 21 21 20 20 20 20
14 15 14 14 16 18 19 20 20 20 22 26 30 31 33 35 36 35 34 34 34 31 27 26 28 29 27 26 26 25 24 23 23 24 25 27 26 23 19 19 22 24 25 28 30 31 30 29 29 28 28 28 28 28 29 29 29 29 28 28 28 28 26 25 25 24 23 24 23 23 23 24 25 25 26 26 26 25 25 25 24 23 22 22 21 21 22
15 14 12 13 14 16 17 18 18 16 17 21 27 30 32 34 35 34 33 32 32 30 28 26 27 28 28 26 25 23 23 23 22 21 19 20 21 23 24 23 24 26 29 30 31 31 32 31 29 28 28 27 27 28 29 29 28 28 28 27 27 27 27 26 26 24 23 23 23 22 22 21 21 21 22 23 24 25 26 26 25 25 24 24 24 23 23
14 15 15 15 14 14 14 14 15 15 16 19 24 27 29 30 31 32 32 30 30 30 29 29 28 27 26 26 26 25 25 25 24 23 18 12 11 15 21 24 25 27 30 31 31 30 30 29 29 28 27 27 26 27 27 27 26 26 27 27 26 26 26 26 25 25 25 24 24 23 22 21 21 20 20 19 20 21 22 23 25 26 26 26 27 27 26
12 14 15 15 15 14 14 14 15 16 17 18 19 21 24 26 26 28 29 29 28 27 27 27 27 27 27 27 27 27 27 27 27 26 24 19 16 17 20 23 24 27 29 31 31 29 28 27 27 26 25 25 25 26 26 26 25 25 24 24 24 24 24 24 24 24 24 24 23 23 23 23 23 23 22 21 21 20 19 19 20 22 23 25 26 27 28
12 13 13 14 15 15 15 16 17 18 16 13 11 14 19 22 22 24 26 27 26 26 26 26 25 25 26 26 25 23 22 22 22 23 24 24 23 22 23 22 23 24 26 28 30 30 28 27 27 26 25 24 25 25 25 25 25 25 24 23 22 21 21 21 21 21 20 20 21 21 21 21 21 22 23 24 24 24 23 22 21 20 19 20 21 22 24
11 11 12 13 14 14 14 14 15 14 14 13 12 15 18 19 19 20 21 22 22 22 23 24 24 24 24 24 24 22 20 17 15 16 19 22 22 21 22 21 22 23 25 27 28 29 28 26 26 26 26 25 25 25 24 24 24 24 25 24 24 23 22 21 21 20 20 19 18 18 19 19 19 19 21 23 24 23 23 22 22 22 21 20 20 20 21
12 12 12 12 12 11 12 11 10 9 11 13 14 16 18 19 18 18 18 19 20 20 20 20 20 21 22 21 21 22 21 19 16 16 18 21 21 21 21 21 21 22 24 25 25 25 25 25 24 24 24 24 24 23 23 23 24 24 24 24 24 25 24 23 23 23 23 22 21 20 19 19 19 20 20 21 21 22 22 21 20 20 20 20 21 21 21
11 11 12 12 11 10 10 9 9 10 11 12 12 14 16 16 15 14 14 15 17 19 19 19 18 18 19 19 19 18 19 19 19 18 18 19 20 21 21 22 21 21 22 22 23 23 24 24 23 23 23 24 23 22 22 22 23 23 24 24 24 25 25 24 23 23 23 23 23 23 22 21 21 21 19 18 19 20 20 19 18 18 19 20 21 21 21
12 11 10 11 13 14 14 12 11 12 13 13 12 12 14 14 13 14 15 14 13 14 16 17 17 16 16 17 17 17 17 16 17 17 18 18 18 19 19 20 20 20 20 21 21 21 21 22 21 21 22 22 22 22 22 22 22 22 23 23 24 24 24 24 24 24 24 23 23 23 23 23 22 22 22 20 18 17 17 16 17 19 20 20 20 21 20
14 14 13 12 14 16 17 16 13 11 11 13 13 13 13 13 13 14 15 15 13 12 12 13 14 15 16 14 14 14 15 15 16 16 16 16 16 16 16 18 19 19 19 20 21 21 21 20 20 20 20 21 21 21 21 22 22 22 22 22 23 24 24 23 23 23 23 23 23 24 24 24 23 22 22 22 20 18 16 17 19 20 19 18 18 18 18
Wind_Direction
290 283 285 294 294 251 173 189 206 199 196 210 216 195 176 156 146 201 203 157 160 209 223 231 217 142 113 110 113 105 97 105 129 153 165 166 155 144 151 161 166 167 167 168 171 174 178 180 181 184 187 190 191 192 192 192 194 196 195 197 199 201 203 205 206 207 207 207 208 208 208 207 208 208 209 209 208 209 209 210 211 212 212 213 214 215 217
293 296 301 296 287 290 46 175 215 217 201 202 211 213 187 167 165 187 174 160 175 198 165 108 87 102 102 99 93 84 85 92 107 136 150 147 136 132 140 149 156 160 161 162 164 169 175 179 183 186 187 188 188 190 192 192 195 197 196 196 198 200 202 204 205 206 207 207 207 207 207 207 207 208 209 208 208 209 210 211 212 212 213 214 216 216 217
300 319 319 302 292 290 329 319 236 273 264 201 203 213 212 183 171 184 166 147 173 200 109 90 72 81 84 76 70 70 74 79 90 119 134 129 126 129 131 134 140 150 157 159 162 168 174 181 187 190 188 187 188 190 192 193 195 197 197 197 198 200 202 203 204 204 206 206 206 206 207 207 207 208 208 208 208 209 209 210 212 212 213 214 216 217 218
331 356 307 286 298 310 287 271 256 335 349 226 204 205 215 195 169 178 162 130 149 148 107 94 72 72 78 73 69 70 68 61 69 93 109 112 119 125 126 129 136 146 156 162 165 171 178 184 190 192 187 184 186 190 193 194 196 198 200 200 199 201 202 201 202 203 204 205 206 206 207 206 207 207 207 208 208 208 208 209 210 211 212 214 215 216 218
326 335 301 280 308 316 265 251 299 34 12 322 224 201 210 205 159 163 165 161 185 161 108 96 83 75 76 78 77 79 77 66 65 77 85 92 99 102 106 116 126 138 147 156 163 171 178 183 188 190 186 182 186 190 193 195 196 199 203 204 201 201 202 201 200 201 202 203 205 207 207 207 207 207 207 208 208 208 208 209 209 211 212 214 215 215 216
306 312 309 315 19 319 236 146 347 0 20 10 40 161 217 235 201 172 151 135 139 109 97 102 101 90 82 83 80 77 76 68 61 63 69 80 83 77 75 79 85 94 100 108 116 129 155 172 180 184 185 185 188 191 194 196 198 200 203 206 205 202 201 201 200 199 200 201 204 206 207 207 208 208 208 209 209 209 208 209 209 211 213 214 214 215 216
290 306 321 42 62 267 261 50 20 7 359 15 66 50 21 349 333 312 135 119 103 94 99 102 102 94 78 65 60 59 62 66 67 63 61 69 73 69 62 59 59 64 68 65 57 60 80 114 158 183 191 193 192 194 195 196 199 201 203 206 207 203 201 201 200 198 198 200 201 203 205 206 207 209 210 210 210 210 209 210 211 212 213 214 216 217 218
299 318 0 121 244 272 323 39 28 8 343 302 83 46 20 6 357 353 94 124 116 107 103 100 97 90 75 60 53 53 54 57 63 63 63 67 68 64 60 54 46 48 54 53 43 34 37 39 39 71 207 205 201 200 201 200 202 204 203 205 208 205 200 201 201 199 198 199 199 201 202 204 206 208 209 211 211 211 211 213 214 214 215 216 218 219 220
333 338 316 261 264 285 13 23 4 343 323 315 91 69 21 6 6 2 1 80 104 101 101 102 96 84 72 61 50 48 49 52 54 55 58 65 68 65 58 52 44 39 43 45 38 24 17 15 12 8 351 235 215 209 206 206 208 208 207 207 208 206 201 200 201 200 198 198 198 199 200 202 204 206 208 210 211 211 212 214 216 217 218 220 221 222 223
330 326 310 292 268 254 9 351 336 323 317 326 81 83 37 2 358 0 1 20 63 82 90 94 93 83 71 61 47 44 48 51 51 49 46 50 64 67 58 55 44 29 27 31 32 30 24 14 4 4 8 2 331 277 222 211 209 209 211 211 210 208 203 201 201 200 199 198 197 198 199 201 203 205 207 208 210 210 212 214 217 219 221 223 224 225 227
304 306 312 317 294 81 355 339 332 324 317 319 69 76 37 350 343 355 9 17 27 45 58 62 73 81 76 66 48 43 47 50 51 51 41 33 41 46 42 46 37 21 20 24 34 45 38 16 1 356 360 2 351 336 310 243 217 211 213 214 213 211 207 203 201 200 199 199 198 198 199 201 202 204 205 207 208 210 212 214 218 221 223 225 227 228 230
294 300 301 320 343 17 342 335 333 323 311 316 64 74 25 333 336 353 17 23 23 34 48 52 59 70 74 73 57 44 47 49 46 47 43 33 29 25 25 32 29 25 31 30 29 39 32 11 4 359 351 349 342 329 326 310 254 225 220 216 214 213 211 205 202 200 198 199 198 198 200 200 202 204 205 206 206 208 211 214 217 220 222 225 228 230 232
296 312 322 307 94 8 344 342 345 336 323 1 68 80 270 315 342 1 17 26 28 32 41 49 55 57 57 60 55 46 48 48 40 37 35 29 22 15 24 35 27 22 32 27 13 24 28 12 5 1 352 346 334 318 319 319 311 288 244 221 212 211 210 205 201 199 198 198 198 198 200 200 200 202 204 204 205 206 210 213 216 219 222 225 229 232 233
282 324 336 316 32 4 345 347 2 1 3 63 66 51 270 336 6 12 11 17 24 31 43 50 53 53 49 47 46 43 44 46 42 35 27 20 14 8 23 39 25 11 26 23 3 19 29 9 357 356 350 338 321 310 345 357 347 343 289 223 209 206 204 202 200 198 197 197 196 197 199 198 198 200 202 203 204 206 208 211 214 218 221 225 229 233 235
308 57 4 349 36 350 339 348 17 23 35 78 3 326 352 9 17 17 10 10 9 18 40 51 51 54 51 46 45 42 42 45 45 37 23 15 9 0 16 37 21 1 3 355 347 30 44 16 4 7 356 341 333 0 29 14 5 13 1 220 206 202 200 199 198 196 195 195 194 193 195 196 196 198 199 202 204 206 208 211 214 218 221 224 228 233 235
6 76 33 4 315 330 342 3 35 39 53 86 47 25 15 6 9 14 13 8 3 6 21 36 44 51 52 50 46 42 44 46 43 38 24 15 8 2 13 24 12 355 342 328 332 61 63 32 21 18 6 3 18 32 24 10 9 25 28 26 202 200 197 194 193 192 191 191 191 191 192 193 194 196 197 200 204 207 209 211 213 217 220 221 225 230 234
354 296 255 266 292 331 355 8 20 36 56 63 57 54 34 1 359 8 10 7 4 2 5 14 26 34 40 43 40 37 43 44 37 36 28 14 6 7 10 6 0 352 332 317 330 73 59 32 27 23 13 13 16 12 9 9 11 16 25 33 182 197 193 189 188 187 187 186 187 188 189 191 193 195 197 199 203 205 208 210 212 215 217 219 221 225 229
3 288 240 263 343 346 355 355 350 13 54 63 58 67 56 6 355 6 8 5 3 3 3 7 14 24 32 34 27 26 37 38 30 29 24 9 2 3 357 347 349 350 334 326 15 71 51 25 24 21 16 17 10 2 5 13 13 12 24 40 105 182 187 184 182 180 181 182 183 185 189 192 194 196 199 201 203 205 207 209 211 213 214 216 218 220 223
17 329 297 354 349 335 336 337 329 344 51 69 58 68 71 26 12 13 6 358 357 3 7 5 2 12 32 34 18 16 37 45 31 21 14 359 346 344 341 334 337 350 348 352 50 67 43 23 21 16 16 18 10 0 0 7 12 16 24 40 78 141 164 172 174 173 176 180 182 184 187 189 193 197 201 202 204 204 205 206 208 211 213 212 211 212 216
346 305 308 321 308 289 300 317 324 349 34 48 40 44 56 46 31 14 359 354 358 2 3 3 359 359 14 27 16 6 25 51 40 24 11 346 332 340 354 351 347 356 5 20 56 58 32 20 17 13 14 13 7 5 1 1 8 13 16 38 69 102 128 148 162 165 170 178 183 185 186 188 191 196 199 201 204 206 207 208 207 206 207 210 212 212 212
307 290 320 345 334 308 326 348 355 0 11 20 23 27 35 47 47 22 356 351 360 0 354 355 355 352 356 9 15 5 8 35 38 17 2 343 336 345 3 4 4 11 13 24 57 56 31 19 15 13 14 7 3 8 7 1 5 8 352 36 73 92 102 118 157 173 177 179 181 182 183 184 184 188 194 202 205 204 206 209 210 210 209 210 212 207 193
303 306 342 6 356 314 319 347 351 350 357 4 10 15 15 30 62 53 4 342 348 356 350 344 347 350 347 349 2 10 5 13 21 11 358 346 343 347 355 2 10 16 16 24 49 54 34 23 18 16 20 16 8 12 14 14 21 36 68 80 75 83 84 80 116 169 186 191 188 184 180 173 159 148 160 184 191 183 176 185 195 199 198 191 186 181 160
305 312 324 334 323 291 301 340 339 335 344 351 351 356 1 6 33 55 24 343 341 345 339 333 338 345 340 337 347 9 7 352 355 3 358 343 340 348 355 356 357 9 22 32 34 30 29 32 24 22 26 24 18 20 25 29 41 64 87 86 78 77 78 76 85 106 125 132 138 152 155 147 132 121 111 105 110 116 117 124 133 137 140 137 135 143 141
303 309 319 321 309 300 306 319 315 312 320 324 319 321 335 345 354 1 346 329 333 332 327 327 329 332 333 332 335 351 3 337 326 334 0 350 338 346 5 11 9 15 33 38 29 26 36 40 35 32 29 22 17 22 33 42 58 74 82 83 79 76 78 81 85 94 101 101 101 112 123 124 121 117 106 96 93 95 98 101 103 105 109 111 109 106 105
302 305 309 306 297 297 302 300 290 286 289 289 288 291 296 293 291 300 300 300 335 330 322 324 323 321 325 326 323 332 353 334 325 334 354 324 304 328 32 41 32 28 38 43 34 34 42 43 39 35 29 21 16 19 34 53 70 76 77 79 81 80 81 84 86 92 97 98 97 102 110 115 118 117 111 106 101 97 96 97 96 96 96 96 96 95 92
294 295 299 296 289 288 293 293 284 278 278 279 278 283 297 301 307 318 302 284 40 329 313 315 312 310 313 317 318 330 345 331 324 328 322 278 252 31 59 66 59 51 54 56 49 41 41 43 40 34 27 20 14 13 37 72 81 81 79 80 83 83 84 87 88 89 91 92 94 98 103 108 112 115 119 121 119 113 109 104 99 95 92 89 87 85 82
281 280 284 283 278 273 269 272 277 277 277 282 286 289 293 300 322 337 318 291 276 273 292 309 305 302 309 318 319 329 339 332 326 327 323 331 56 68 76 82 78 69 63 61 56 49 43 42 39 31 25 21 17 17 47 82 86 86 83 81 81 83 86 91 93 91 91 92 93 96 101 106 110 115 120 125 125 124 122 116 109 104 96 89 83 77 72
267 262 257 255 258 261 264 273 281 283 283 287 297 302 299 298 308 317 313 306 297 274 261 302 300 295 305 317 314 314 332 337 342 341 336 352 64 95 93 86 81 75 68 63 60 55 48 42 38 31 24 21 21 29 55 79 84 83 80 77 78 84 91 96 96 94 95 97 96 95 96 99 104 110 114 114 113 116 121 121 118 112 103 93 82 71 62
254 247 241 242 248 253 260 269 273 277 281 285 292 298 299 299 298 295 292 298 294 274 245 300 302 297 300 309 309 310 334 349 1 347 336 347 48 123 118 99 87 76 65 57 56 58 54 46 38 30 23 20 24 34 57 81 87 83 77 72 71 80 94 99 97 95 95 95 94 94 93 90 90 96 102 104 102 103 109 116 119 116 109 98 83 69 63
258 237 230 237 243 242 243 249 253 259 263 264 266 274 280 282 286 291 295 297 293 285 275 313 307 300 299 308 337 22 19 21 25 8 342 331 335 151 129 104 85 70 57 48 47 52 55 49 39 31 25 24 29 34 49 77 87 81 72 66 63 69 91 103 99 95 93 91 90 92 93 91 89 91 98 106 107 103 102 107 114 117 115 103 80 69 67
275 229 217 227 233 232 237 242 243 247 251 249 245 249 255 261 267 274 282 290 291 289 287 289 302 298 294 314 51 55 51 54 48 33 10 353 31 119 111 97 85 74 62 53 47 47 50 49 41 34 30 31 37 40 46 63 76 73 67 62 59 62 76 88 85 81 79 78 77 78 78 79 79 78 82 91 98 102 108 115 118 120 118 103 81 70 68
316 213 200 211 223 229 237 242 241 242 243 239 233 233 236 242 249 254 262 271 273 275 271 260 282 293 294 33 76 66 60 66 68 62 50 38 41 68 89 91 86 77 66 57 52 49 48 44 38 35 35 36 42 49 54 62 70 71 68 63 59 60 66 72 73 72 71 70 69 68 65 63 61 60 61 63 65 68 74 83 85 89 99 103 92 75 60
6 7 206 215 220 224 233 237 237 238 240 238 235 232 227 226 235 245 253 259 263 263 245 225 262 280 284 58 82 82 81 75 74 76 69 58 51 50 55 67 76 73 64 55 51 48 45 41 39 40 40 39 45 57 65 70 76 77 75 70 66 64 65 68 69 69 69 68 67 66 65 63 60 57 56 57 58 58 57 59 60 61 65 73 74 63 50
16 15 6 348 309 256 247 242 233 229 231 233 234 231 226 221 224 231 236 245 257 253 225 217 253 269 263 94 91 106 127 95 80 75 69 64 62 61 56 52 54 59 58 53 47 42 38 38 42 44 42 41 47 63 77 82 86 87 85 81 76 72 70 69 69 69 68 68 67 66 65 64 62 59 57 56 57 58 58 59 60 59 56 57 58 54 49
16 16 14 11 10 9 355 317 272 243 233 229 227 227 225 223 228 230 229 237 248 243 222 213 234 223 141 110 108 141 145 102 90 84 75 68 66 67 64 55 45 44 47 46 39 34 35 40 46 47 45 45 50 65 91 101 97 94 92 88 84 80 75 72 70 68 67 67 67 66 64 63 62 60 58 57 57 57 58 59 60 59 57 54 50 46 44
17 16 15 14 15 18 19 13 4 357 333 273 245 233 220 218 226 228 227 237 245 235 196 154 132 127 122 119 130 144 122 101 93 86 79 75 70 65 63 58 48 40 38 36 30 29 36 45 50 52 52 50 52 60 81 100 101 97 94 90 85 82 78 75 73 71 68 66 66 65 64 64 62 59 58 56 55 54 55 55 55 55 54 50 45 41 38
20 19 17 14 17 21 21 17 17 25 28 20 358 316 260 240 241 241 236 235 232 200 156 138 128 124 130 133 129 116 101 96 94 88 81 80 75 66 59 54 48 43 37 27 21 26 37 47 53 56 57 55 54 59 69 79 83 84 84 83 82 80 78 76 73 69 66 65 64 63 62 61 59 57 56 55 54 52 51 51 51 51 49 45 41 38 35
23 24 23 19 19 22 22 22 24 29 33 35 28 15 8 34 40 6 266 214 172 147 139 133 126 128 131 121 106 94 86 86 90 88 84 79 75 70 61 51 46 44 37 26 25 31 38 47 55 59 60 59 58 60 67 73 74 73 72 74 75 75 74 75 74 72 69 66 63 61 60 59 58 56 56 55 54 53 51 50 50 49 47 44 41 38 35
26 26 26 24 22 21 22 25 27 28 30 33 31 31 46 62 60 46 36 62 108 128 133 127 122 126 123 107 94 87 83 83 85 85 83 79 75 73 67 56 50 49 46 42 43 43 43 49 56 59 60 61 62 63 66 70 72 71 70 71 71 71 70 72 74 75 73 70 66 63 63 62 61 60 59 56 55 54 52 50 50 49 48 46 43 40 38
30 27 27 28 27 24 23 24 26 27 30 31 27 29 49 61 61 51 41 46 60 74 93 108 111 104 91 88 86 81 77 76 76 78 79 77 74 73 69 56 49 49 51 51 52 51 50 54 57 58 58 61 64 64 66 69 71 70 69 70 71 71 71 71 72 73 73 72 70 67 66 66 66 65 63 61 60 58 56 54 52 51 51 49 45 41 40
38 33 31 32 32 31 29 28 26 28 31 30 27 30 45 57 60 54 46 48 52 52 57 77 94 91 83 84 85 80 76 73 71 70 72 72 70 70 67 53 46 48 51 54 56 57 57 58 58 58 59 60 62 65 68 70 71 70 70 71 72 73 73 74 74 74 75 76 75 73 71 71 71 70 69 68 67 65 63 61 58 56 55 53 48 41 38
46 42 38 35 35 35 36 36 34 33 32 30 29 32 43 52 57 55 50 51 53 49 44 50 67 74 75 78 80 78 76 73 71 69 68 65 62 64 65 55 48 48 51 54 56 57 59 60 60 61 62 63 63 65 69 71 71 70 70 70 70 72 75 77 79 81 81 81 81 80 78 77 76 75 74 73 71 69 67 66 64 61 58 56 51 46 42
47 49 46 43 40 39 40 41 41 40 38 36 34 37 42 48 52 52 50 51 52 49 42 43 52 58 60 64 68 68 65 63 65 68 68 65 62 62 65 61 53 50 53 55 55 55 57 60 62 63 64 64 65 67 70 71 70 70 69 69 69 69 70 74 79 84 86 86 85 85 83 82 81 80 79 76 74 72 70 67 65 63 60 58 55 52 49
43 46 49 50 49 48 47 45 43 41 42 44 45 45 46 48 50 50 49 49 50 47 42 40 45 50 52 54 58 61 59 56 55 58 64 66 62 59 61 61 57 54 54 56 56 54 55 59 63 65 65 66 66 67 69 69 68 68 68 68 68 68 68 69 71 75 78 81 82 84 84 84 84 85 85 84 81 79 75 70 67 65 63 60 56 53 50
48 46 46 47 49 50 50 51 48 45 46 51 53 53 54 54 54 54 53 51 50 49 45 42 41 43 46 48 53 57 59 58 56 55 57 60 58 56 58 59 57 56 57 58 57 56 57 60 63 65 66 66 66 67 68 68 68 69 69 68 68 68 68 68 70 72 74 76 77 78 78 78 78 79 82 84 86 86 84 79 75 70 66 63 61 57 53
56 52 47 46 46 45 44 48 50 49 48 50 53 54 57 60 62 62 60 57 53 52 51 49 47 45 45 46 49 51 53 53 54 54 54 55 57 58 59 58 56 55 56 57 57 57 59 62 64 65 65 65 66 67 67 66 66 67 68 69 70 71 71 72 74 77 79 81 83 84 84 84 82 79 78 77 78 79 80 80 79 76 71 67 64 59 55
58 60 54 49 47 46 44 47 48 46 44 46 48 48 52 58 63 67 68 66 62 58 55 53 52 51 51 52 52 51 50 50 49 49 51 55 57 57 57 56 54 53 54 55 56 58 61 65 66 67 68 67 66 66 66 65 64 63 63 64 67 70 73 75 76 76 78 82 86 85 85 86 86 86 84 80 76 73 70 69 69 70 69 65 61 57 54
50 59 60 57 54 50 44 47 51 50 47 48 49 45 46 51 59 65 69 71 70 66 62 59 55 53 52 54 55 54 54 55 53 48 49 53 56 58 58 58 56 54 55 55 55 57 61 65 67 67 66 67 67 67 67 66 64 62 60 60 61 63 66 68 68 67 69 75 79 78 77 79 82 85 86 84 80 75 72 70 68 65 63 61 57 52 50
44 50 53 52 54 55 49 46 50 57 60 61 59 52 47 47 51 57 63 68 68 65 64 64 63 59 55 53 54 54 55 56 57 57 58 58 58 59 61 61 60 58 57 56 54 55 60 64 66 65 65 66 67 68 68 67 65 62 60 59 59 60 61 63 65 67 68 69 71 71 73 76 80 83 85 86 84 79 75 73 71 67 65 63 60 56 51
45 52 56 48 40 41 45 47 48 51 57 65 70 67 59 51 46 45 53 64 70 68 62 60 64 67 65 61 57 57 59 60 60 60 62 62 61 61 63 64 63 61 61 59 56 57 60 63 64 64 65 66 66 68 69 69 68 65 62 60 60 60 60 60 64 68 69 68 67 66 65 67 71 72 72 77 85 85 79 74 73 72 71 68 64 58 54
40 45 59 58 45 34 32 41 56 62 59 58 62 68 69 64 54 45 43 51 66 74 69 60 57 61 67 69 66 61 60 62 63 63 62 63 64 65 68 69 68 66 65 63 60 60 62 64 65 65 66 67 67 68 69 70 70 69 66 63 61 61 61 61 62 64 65 66 65 64 62 63 65 62 58 60 71 80 79 76 78 81 78 71 64 58 54
52 43 42 46 46 37 26 23 34 56 69 68 64 65 68 70 67 58 49 45 49 62 72 71 63 59 59 64 69 69 65 63 64 65 66 67 68 69 74 78 77 72 69 67 65 63 63 64 66 67 68 68 70 71 71 71 70 69 68 66 64 62 62 61 61 62 62 63 62 61 60 59 59 57 54 53 58 65 71 76 80 82 78 71 65 60 56